Lancaster, PA

10:10 AM EDT on April 21, 2018 (GMT -0400)
Lancaster

Weather History for KLNS - September, 2011

Change the Weather History Date:

Thursday, September 15, 2011

  Actual Average Record
Temperature  
Mean Temperature 59 °F -  
Max Temperature 69 °F 77 °F 87 °F (1998)
Min Temperature 48 °F 56 °F 36 °F (1985)
Degree Days  
Heating Degree Days 6    
Growing Degree Days 9 (Base 50)    
Moisture  
Dew Point 59 °F    
Average Humidity 89    
Maximum Humidity 100    
Minimum Humidity 74    
Precipitation  
Precipitation 0.51 in - - ()
Sea Level Pressure  
Sea Level Pressure 29.96 in    
Wind  
Wind Speed 4 mph (NNW)    
Max Wind Speed 18 mph    
Max Gust Speed 26 mph    
Visibility 5 miles    
Events Rain    
Averages and records for this station are not official NWS values.
T = Trace of Precipitation, MM = Missing Value Source: NWS Daily Summary

Daily Weather History Graph

Daily Weather History Graph

Search for Another Location

Airport or City:

Astronomy

Sep. 15, 2011 Rise Set
Actual Time 6:45 AM EDT 7:14 PM EDT
Civil Twilight 6:18 AM EDT 7:41 PM EDT
Nautical Twilight 5:46 AM EDT 8:13 PM EDT
Astronomical Twilight 5:13 AM EDT 8:46 PM EDT
Moon 8:28 PM EDT (9/15) 9:52 AM EDT (9/15)
Length of Visible Light 13h 23m
Length of Day
12h 28m
Waning Gibbous, 91% of the Moon is Illuminated
Sep 15
Waning Gibbous
Sep 20
Last Quarter
Sep 27
New
Oct 3
First Quarter
Oct 11
Full

Hourly Weather History & Observations

Time (EDT) Temp. Dew Point Humidity Pressure Visibility Wind Dir Wind Speed Gust Speed Precip Events Conditions
12:53 AM 64.0 °F 62.1 °F 93% 29.91 in 4.0 mi NNW 3.5 mph - N/A   Clear
1:53 AM 66.0 °F 64.0 °F 93% 29.90 in 6.0 mi Calm Calm - N/A   Clear
3:06 AM 64.4 °F 64.4 °F 100% 29.91 in 2.5 mi SSE 3.5 mph - N/A   Clear
3:34 AM 64.4 °F 64.4 °F 100% 29.90 in 3.0 mi Calm Calm - N/A   Scattered Clouds
4:12 AM 64.4 °F 62.6 °F 94% 29.89 in 2.5 mi Calm Calm - N/A   Partly Cloudy
4:20 AM 64.4 °F 62.6 °F 94% 29.89 in 3.0 mi Calm Calm - N/A   Partly Cloudy
4:31 AM 62.6 °F 62.6 °F 100% 29.89 in 2.0 mi Calm Calm - N/A   Clear
4:42 AM 64.4 °F 62.6 °F 94% 29.89 in 1.8 mi Calm Calm - N/A   Clear
4:53 AM 63.0 °F 61.0 °F 93% 29.88 in 2.0 mi Calm Calm - N/A   Clear
5:04 AM 64.4 °F 62.6 °F 94% 29.89 in 3.0 mi Calm Calm - N/A   Scattered Clouds
5:53 AM 64.0 °F 63.0 °F 96% 29.88 in 3.0 mi Calm Calm - N/A   Mostly Cloudy
6:20 AM 64.4 °F 64.4 °F 100% 29.91 in 1.8 mi West 4.6 mph - 0.09 in Rain Heavy Rain
6:40 AM 64.4 °F 64.4 °F 100% 29.89 in 2.5 mi NNE 5.8 mph - 0.19 in Rain Light Rain
7:02 AM 64.4 °F 64.4 °F 100% 29.91 in 2.0 mi Calm Calm - 0.14 in Rain Heavy Rain
7:19 AM 64.4 °F 64.4 °F 100% 29.92 in 2.0 mi NNW 5.8 mph - 0.18 in Rain Heavy Rain
7:50 AM 64.4 °F 64.4 °F 100% 29.91 in 2.0 mi NNE 3.5 mph - 0.29 in Rain Rain
7:53 AM 64.9 °F 64.0 °F 97% 29.91 in 2.0 mi Calm Calm - 0.29 in Rain Rain
8:08 AM 66.2 °F 64.4 °F 94% 29.92 in 3.0 mi NNW 4.6 mph - 0.01 in   Overcast
8:53 AM 66.0 °F 64.0 °F 93% 29.92 in 3.0 mi Calm Calm - 0.01 in   Overcast
9:05 AM 66.2 °F 62.6 °F 88% 29.92 in 1.5 mi North 6.9 mph - 0.07 in Rain Rain
9:29 AM 64.4 °F 62.6 °F 94% 29.94 in 3.0 mi North - - 0.12 in Rain Light Rain
9:39 AM 64.4 °F 62.6 °F 94% 29.93 in 3.0 mi North 3.5 mph - 0.12 in Rain Light Rain
9:53 AM 66.0 °F 63.0 °F 90% 29.94 in 4.0 mi Variable 5.8 mph - 0.12 in Rain Light Rain
10:13 AM 66.2 °F 62.6 °F 88% 29.93 in 3.0 mi North 6.9 mph - 0.01 in Rain Light Rain
10:49 AM 64.4 °F 62.6 °F 94% 29.94 in 2.5 mi Calm Calm - 0.03 in Rain Light Rain
10:50 AM 64.9 °F 62.1 °F 90% 29.94 in 2.0 mi Calm Calm - 0.04 in Rain Light Rain
10:59 AM 64.4 °F 62.6 °F 94% 29.92 in 4.0 mi North 4.6 mph - 0.00 in Rain Light Rain
11:25 AM 66.2 °F 62.6 °F 88% 29.92 in 4.0 mi East 3.5 mph - 0.01 in   Mostly Cloudy
11:53 AM 66.9 °F 63.0 °F 87% 29.92 in 4.0 mi North 4.6 mph - 0.01 in   Scattered Clouds
12:53 PM 68.0 °F 61.0 °F 78% 29.93 in 8.0 mi NNW 3.5 mph - N/A   Mostly Cloudy
1:14 PM 68.0 °F 62.6 °F 83% 29.93 in 7.0 mi NW 4.6 mph - N/A   Overcast
1:53 PM 66.0 °F 61.0 °F 84% 29.93 in 5.0 mi NW 8.1 mph - 0.02 in Rain Rain
2:32 PM 66.2 °F 60.8 °F 83% 29.94 in 9.0 mi NW 12.7 mph - 0.00 in   Overcast
2:53 PM 64.0 °F 59.0 °F 84% 29.95 in 10.0 mi NNW 16.1 mph 21.9 mph 0.00 in   Overcast
3:09 PM 62.6 °F 57.2 °F 82% 29.96 in 10.0 mi NNW 18.4 mph - N/A   Overcast
3:41 PM 59.0 °F 53.6 °F 82% 29.98 in 10.0 mi North 11.5 mph 25.3 mph 0.00 in   Overcast
3:53 PM 59.0 °F 52.0 °F 78% 29.99 in 10.0 mi North 17.3 mph 25.3 mph 0.00 in   Overcast
4:53 PM 55.9 °F 50.0 °F 80% 30.04 in 10.0 mi NNW 13.8 mph 23.0 mph 0.01 in Rain Light Rain
5:12 PM 55.4 °F 48.2 °F 77% 30.05 in 10.0 mi NNW 11.5 mph 26.5 mph 0.00 in   Overcast
5:53 PM 54.0 °F 48.9 °F 83% 30.08 in 10.0 mi NNW 9.2 mph - 0.01 in Rain Light Rain
6:53 PM 55.0 °F 46.9 °F 74% 30.09 in 10.0 mi NNW 11.5 mph - 0.00 in   Mostly Cloudy
7:53 PM 53.1 °F 45.0 °F 74% 30.11 in 10.0 mi NNW 6.9 mph - N/A   Clear
8:53 PM 51.1 °F 45.0 °F 80% 30.15 in 10.0 mi WNW 3.5 mph - N/A   Clear
9:53 PM 50.0 °F 45.0 °F 83% 30.17 in 10.0 mi NW 4.6 mph - N/A   Clear
10:53 PM 50.0 °F 45.0 °F 83% 30.17 in 10.0 mi NW 6.9 mph - N/A   Clear
11:53 PM 48.9 °F 45.0 °F 86% 30.19 in 10.0 mi NW 4.6 mph - N/A   Clear